Flag for Brazil Weather past 2 weeks in Recife, Pernambuco, Brazil

Now
79 °F

Scattered clouds.


Feels Like: 82 °F
Forecast: N/A
Wind: 6 mph from East

Location: Recife Aeroporto

Current Time: Oct 25, 2014 at 6:28:36 PM

Latest Report: Oct 25, 2014 at 6:00 PM


Visibility: N/A

Pressure: 29.92 "Hg

Humidity: 79%

Dew point: 72 °F

Location of RecifeLocation

Historic Weather in Recife — Graph

°F

Recife temperature yesterday

Maximum temperature yesterday: 82 °F (at 9:00 AM)
Minimum temperature yesterday: 75 °F (at 1:00 AM)
Average temperature yesterday: 79 °F

Past Weeks' High & Low Weather Summary

 TemperatureHumidityPressure
High84 °F (Oct 12, 12:00 PM)100% (Oct 11, 6:00 AM)30.07 "Hg (Oct 11, 6:00 AM)
Low73 °F (Oct 11, 4:00 AM)62% (Oct 14, 11:00 AM)29.86 "Hg (Oct 20, 4:00 PM)
Average79 °F77%29.98 "Hg
* Reported Oct 10 5:00 PM — Oct 25 5:00 PM, Recife, Weather by CustomWeather, © 2014

Note: Actual official high and low records may vary slightly from our data, if they occured in-between our weather recording intervals... More about our weather records

Advertising

Recife weather history for previous 24 hours

 ConditionsComfort  
Time TempWeatherWind HumidityBarometerVisibility
5:00 PM
Oct 25
79 °FPartly sunny.8 mph79%29.92 "HgN/A
4:00 PM81 °FPartly sunny.9 mph70%29.92 "HgN/A
3:00 PM81 °FPartly sunny.7 mph66%29.92 "HgN/A
2:00 PM79 °FBroken clouds.7 mph79%29.92 "HgN/A
1:00 PM77 °FLight rain. Partly sunny.16 mph83%29.92 "HgN/A
12:00 PM82 °FScattered clouds.9 mph66%29.95 "HgN/A
11:00 AM82 °FPassing clouds.13 mph66%29.95 "HgN/A
10:00 AM84 °FPassing clouds.12 mph62%29.98 "HgN/A
9:00 AM82 °FPassing clouds.10 mph66%29.98 "HgN/A
8:00 AM82 °FScattered clouds.10 mph66%29.98 "HgN/A
7:00 AM81 °FScattered clouds.8 mph70%29.95 "HgN/A
6:00 AM79 °FPartly sunny.10 mph74%29.92 "HgN/A
5:00 AM77 °FPassing clouds.9 mph79%29.92 "HgN/A
4:00 AM77 °FPassing clouds.10 mph74%29.89 "HgN/A
3:00 AM79 °FPassing clouds.8 mph74%29.89 "HgN/A
2:00 AM77 °FPassing clouds.9 mph79%29.89 "HgN/A
1:00 AM79 °FPassing clouds.9 mph74%29.89 "HgN/A
12:00 AM79 °FPassing clouds.6 mph74%29.92 "HgN/A
11:00 PM
Oct 24
79 °FPassing clouds.8 mph74%29.95 "HgN/A
10:00 PM79 °FPassing clouds.9 mph74%29.95 "HgN/A
9:00 PM79 °FPassing clouds.9 mph74%29.95 "HgN/A
8:00 PM79 °FPassing clouds.9 mph79%29.95 "HgN/A
7:00 PM79 °FPassing clouds.8 mph74%29.95 "HgN/A
6:00 PM79 °FBroken clouds.8 mph74%29.92 "HgN/A
Weather by CustomWeather, © 2014

See weather overviewHow to use our weather pages